Location: Newark
(22.3060°N, 114.2134°E)
Time: 02:50:15
(UTC+00:00)

Vanguard 2 - Pass Details

Date: 03 August 2021
Orbit: 553 x 2937 km, 32.9° (Epoch: 27 September)

Event Time Altitude Azimuth Distance (km) Brightness Sun altitude
Rises 00:59:58 0° 298° (WNW) 3,342 10.4 40.8°
Reaches altitude 10° 01:02:02 10° 300° (WNW) 2,602 10.0 41.2°
Maximum altitude 01:08:19 74° 26° (NNE) 1,312 9.6 42.7°
Drops below altitude 10° 01:19:08 10° 110° (ESE) 4,327 12.3 45.2°
Sets 01:23:31 0° 112° (ESE) 5,708 12.6 46.2°
